Regional Weather Roundup
Issued by NWS

Home | Current Version | Previous Version | Graphics & Text | Print | Product List | Glossary On
Versions: 1 2 3 4 5 6 7 8 9 10 11 12 13 14 15 16 17 18 19 20 21 22 23 24 25 26 27
000
ASUS45 KCYS 302210
RWRWY

WYOMING REGIONAL WEATHER ROUNDUP
NATIONAL WEATHER SERVICE CHEYENNE WY
400 PM MDT THU OCT 30 2014

NOTE:  "FAIR" INDICATES FEW OR NO CLOUDS BELOW 12,000 FEET
WITH NO SIGNIFICANT WEATHER AND/OR OBSTRUCTIONS TO VISIBILITY.

WYZ001-302300-
YELLOWSTONE NATIONAL PARK

CITY           SKY/WX    TMP DP  RH WIND       PRES   REMARKS
LK YELLOWSTONE   N/A     47  27  45 CALM      30.37
W YELLOWSTONE  NOT AVBL

$$
WYZ002>013-054>058-071-098>099-302300-
NORTHERN WYOMING

CITY           SKY/WX    TMP DP  RH WIND       PRES   REMARKS
JACKSON        SUNNY     57  28  33 CALM      30.29F
CODY           PTSUNNY   57  27  30 SE9       30.27
GREYBULL       MOSUNNY   63  26  24 VRB3      30.25F
WORLAND        MOSUNNY   63  25  23 N5        30.25F
SHERIDAN       SUNNY     61  28  28 E7        30.30R
BUFFALO        SUNNY     56  25  30 E6        30.33S
GILLETTE       SUNNY     58  25  28 N9        30.32S
HULETT         FAIR      55  32  41 N6        30.35R
NEWCASTLE      FAIR      55  28  35 NW12      30.32S

$$
WYZ014>020-022>026-101>103-302300-
CENTRAL WYOMING

CITY           SKY/WX    TMP DP  RH WIND       PRES   REMARKS
BIG PINEY      SUNNY     58  25  28 CALM      30.34F
PINEDALE       CLEAR     55  27  33 CALM      30.34
DUBOIS         FAIR      55  27  33 CALM      30.30S
LANDER         SUNNY     58  26  29 SE3       30.27F
RIVERTON       SUNNY     55  26  32 NE8       30.29F
CASPER         SUNNY     59  22  24 VRB3      30.31S
DOUGLAS        SUNNY     61  25  25 N6        30.33R

$$
WYZ021-027>030-104>119-302300-
SOUTHERN WYOMING

CITY           SKY/WX    TMP DP  RH WIND       PRES   REMARKS
EVANSTON       MOSUNNY   64  24  21 VRB7      30.29F
KEMMERER       CLEAR     59  28  31 SE3       30.33S
FORT BRIDGER   FAIR      62  29  28 NE7       30.34F
ROCK SPRINGS   SUNNY     60  24  25 NE5       30.32S
DIXON          FAIR      61  26  26 W7        30.36S
RAWLINS        SUNNY     59  23  25 W9        30.33F
SARATOGA       FAIR      59  21  23 NW9       30.35S
LARAMIE        SUNNY     57  19  22 N10       30.35S
CHEYENNE       SUNNY     57  25  29 E10       30.34R
TORRINGTON     SUNNY     63  27  25 N13       30.29S
PINE BLUFFS    FAIR      57  28  33 N10       30.34R

$$



USA.gov is the U.S. government's official web portal to all federal, state and local government web resources and services.